Regional Weather Roundup
Issued by NWS

Home | Current Version | Previous Version | Text Only | Print | Product List | Glossary On
Versions: 1 2 3 4 5 6 7 8 9 10 11 12 13 14 15 16 17 18 19 20 21 22 23 24 25 26 27 28 29 30 31 32 33 34 35 36 37 38 39 40 41 42 43 44 45 46 47 48 49 50
000
ASCA44 KEWX 311420
RWRMX

LATIN AMERICA AND CARIBBEAN REGIONAL WEATHER ROUNDUP
NATIONAL WEATHER SERVICE AUSTIN/SAN ANTONIO TX
900 AM CDT WED AUG 31 2016

NOTE: "FAIR" INDICATED FEW OR NO CLOUDS BELOW 12,000 FEET WITH NO
SIGNIFICANT WEATHER AND/OR OBSTRUCTIONS TO VISIBILITY.

BAJA CALIFORNIA

CITY           SKY/WX    TMP DP  RH WIND       PRES   REMARKS
LORETO         MOSUNNY   86  68  54 W7        29.78R
LA PAZ         MOSUNNY   72  64  78 S9        29.88
MEXICALI       PTCLDY    81  61  50 SE6       29.76
S.J. DEL CABO  SUNNY     72  63  73 NW6       29.84R
TIJUANA        PTCLDY    64  57  77 CALM      29.86R

NORTHWESTERN MEXICO

CITY           SKY/WX    TMP DP  RH WIND       PRES   REMARKS
CULIACAN       PTSUNNY   79  75  89 CALM      29.82
DURANGO        CLOUDY    63  59  88 CALM      30.25
GUAYMAS        MOSUNNY   86  75  70 CALM      29.79  HX  95
HERMOSILLO     CLOUDY    81  73  78 CALM      29.87
CD. JUAREZ     PTSUNNY   68  57  68 E12       30.12
OBREGON        MOSUNNY   79  70  73 E5        29.81

NORTHEASTERN MEXICO

CITY           SKY/WX    TMP DP  RH WIND       PRES   REMARKS
CHIHUAHUA      RAIN      64  64 100 N7        30.19
MATAMOROS      PTSUNNY   79  77  94 N5        29.90
MONCLOVA       CLOUDY    73  72  94 CALM      30.06R HAZE
MONTERREY      PTSUNNY   77  68  73 NW9       30.00R
NUEVO LAREDO   PTSUNNY   75  73  94 NW6       29.98
PIEDRAS NEGRAS MOSUNNY   77  72  83 NW5       30.01S
REYNOSA        PTSUNNY   77  70  78 N9        29.93
SALTILLO       FOG       64  61  88 CALM      30.23R VSB 1
TORREON        MOSUNNY   73  66  78 CALM      30.11R
CD. VICTORIA   PTSUNNY   75  75 100 NW6       29.93

WESTERN MEXICO

CITY           SKY/WX    TMP DP  RH WIND       PRES   REMARKS
AGUASCALIENTES SUNNY     61  55  82 N5        30.24
COLIMA           N/A    N/A N/A N/A MISG        N/A
DEL BAJIO      MOSUNNY   63  57  82 CALM      30.28R
GUADALAJARA    PTSUNNY   63  59  88 CALM      30.16  FOG
MANZANILLO     MOSUNNY   79  72  78 N7        29.81R
MAZATLAN       PTSUNNY   81  77  89 E3        29.83R
P. VALLARTA    PTSUNNY   75  73  94 CALM      29.84R
URUAPAN        SUNNY     61  59  94 CALM      30.15R
ZACATECAS      MOSUNNY   55  52  88 CALM      30.28S

CENTRAL MEXICO

CITY           SKY/WX    TMP DP  RH WIND       PRES   REMARKS
CUERNAVACA     MOSUNNY   70  64  83 NE3       30.09R
MEXICO CITY    SUNNY     59  46  63 E6        30.32R
MORELIA        MOSUNNY   59  55  88 CALM      30.22
POZA RICA      MOSUNNY   77  73  88 CALM      29.92R
PUEBLA         MOSUNNY   54  48  82 N5        30.30R
QUERETARO      MOSUNNY   59  55  88 E5        30.30R
S. LUIS POTOSI MOSUNNY   63  54  72 CALM      30.24R
TAMPICO        PTSUNNY   82  75  78 CALM      29.88R
TOLUCA         PTSUNNY   52  48  87 NE3       30.36R FOG

SOUTHERN MEXICO

CITY           SKY/WX    TMP DP  RH WIND       PRES   REMARKS
ACAPULCO       MOSUNNY   82  77  83 CALM      29.84R HX  91
B. DE HUATULCO CLOUDY    73  68  83 CALM      29.91
OAXACA         PTSUNNY   64  55  72 CALM      30.19R
P. ESCONDIDO   MOSUNNY   77  73  88 E8        29.96R
VERACRUZ       MOSUNNY   79  75  89 CALM      29.87R
ZIHUATANEJO    PTSUNNY   79  73  83 CALM      29.83S

YUCATAN PENINSULA

CITY           SKY/WX    TMP DP  RH WIND       PRES   REMARKS
CAMPECHE       PTSUNNY   82  79  89 SE7       29.79R HX  93
CANCUN         CLOUDY    79  79 100 SW7       29.85R
CHETUMAL       PTSUNNY   79  79 100 CALM      29.85
CD. DEL CARMEN PTSUNNY   84  77  79 W5        29.82  HX  94
COZUMEL        PTSUNNY   77  77 100 CALM      29.84R
MERIDA         PTSUNNY   79  75  89 S7        29.83R
MINATITLAN     MOSUNNY   81  72  74 SW9       29.86
TAPACHULA      PTSUNNY   79  75  89 CALM      29.84R
TUX. GUTIERREZ PTSUNNY   73  70  88 CALM      29.96S FOG
VILLAHERMOSA   PTSUNNY   77  75  94 SW7       29.87R

CENTRAL AMERICA

CITY           SKY/WX    TMP DP  RH WIND       PRES   REMARKS
BELIZE CITY    MOSUNNY   81  77  89 W6        29.86R
MANAGUA        MOSUNNY   81  73  78 CALM      29.86R

CARIBBEAN

CITY           SKY/WX    TMP DP  RH WIND       PRES   REMARKS
ARUBA          MOSUNNY   88  79  74 E22       29.92  HX 102
CURACAO        MOSUNNY   90  79  70 E12       29.94S HX 105
KINGSTON       PTSUNNY   84  75  74 MISG      29.94  THUNDER HX  92
NASSAU         PTSUNNY   84  75  74 E5        30.01  HX  92
SAN JUAN       MOSUNNY   86  77  74 E18       30.05R HX  97
SANTO DOMINGO  MOSUNNY   84  77  79 E9        30.00S HX  94
ST. CROIX      MOSUNNY   90  75  62 E15       30.05R HX 100
ST. KITTS      MOSUNNY   88  75  66 NE16      30.03S HX  97
ST. MAARTEN    MOSUNNY   88  75  66 E15       30.03S HX  97
ST. THOMAS     MOSUNNY   90  79  70 E13       30.04  HX 105

$$





USA.gov is the U.S. government's official web portal to all federal, state and local government web resources and services.